Location: Beeston
(52.7000°N, 0.8167°E)
Time: 20:11:31
(UTC+00:00)

NOSS 3-4 (C) - Pass Details

Date: 15 May 2026
Orbit: 773 x 1438 km, 63.4° (Epoch: 26 December)

Event Time Altitude Azimuth Distance (km) Brightness Sun altitude
Rises 20:39:06 0° 312° (NW) 3,610 9.2 -6.9°
Reaches altitude 10° 20:41:28 10° 313° (NW) 2,744 7.7 -7.2°
Maximum altitude 20:48:01 85° 43° (NE) 1,118 3.9 -7.9°
Enters shadow 20:55:45 10° 133° (SE) 3,222 5.5 -8.6°
